SAS52E LKPR-EKCH

Flight info

Callsign SAS52E
Flight time 0h 55m
Altitude 38000
Route VENOX DCT DEKOV Y621 GARKI DCT POGAB Z36 OBANI M725 GERGA T239 PEROM T298 MONAK
Aircraft A320/M-SDE3FGHIRWY/LB1

Departure

Time 2026-05-07 19:10
Airport Václav Havel Airport Prague (LKPR)

Arrival

Time 2026-05-07 20:06
Airport Copenhagen Kastrup Airport (EKCH)
Time Latitude Longitude Altitude Speed Heading
2026-05-07 18:30 50.10561 14.26348 1174 ft 0 kts 34°
2026-05-07 18:56 50.10559 14.26346 1171 ft 3 kts 34°
2026-05-07 18:56 50.10537 14.26322 1172 ft 4 kts 33°
2026-05-07 18:57 50.10515 14.26305 1170 ft 4 kts 351°
2026-05-07 18:57 50.10501 14.26322 1171 ft 2 kts 304°
2026-05-07 18:57 50.10500 14.26325 1171 ft 0 kts 304°
2026-05-07 19:00 50.10505 14.26313 1175 ft 3 kts 304°
2026-05-07 19:00 50.10524 14.26270 1172 ft 7 kts 303°
2026-05-07 19:00 50.10543 14.26183 1173 ft 10 kts 291°
2026-05-07 19:00 50.10582 14.26088 1172 ft 10 kts 301°
2026-05-07 19:01 50.10561 14.26004 1174 ft 10 kts 217°
2026-05-07 19:01 50.10498 14.25988 1171 ft 10 kts 149°
2026-05-07 19:01 50.10448 14.26082 1171 ft 12 kts 127°
2026-05-07 19:01 50.10393 14.26197 1175 ft 15 kts 126°
2026-05-07 19:02 50.10322 14.26347 1173 ft 20 kts 126°
2026-05-07 19:02 50.10235 14.26525 1173 ft 21 kts 127°
2026-05-07 19:02 50.10144 14.26713 1178 ft 22 kts 127°
2026-05-07 19:02 50.10062 14.26885 1190 ft 18 kts 128°
2026-05-07 19:03 50.09995 14.27022 1197 ft 16 kts 127°
2026-05-07 19:03 50.09918 14.27182 1201 ft 19 kts 127°
2026-05-07 19:03 50.09834 14.27341 1203 ft 19 kts 135°
2026-05-07 19:03 50.09743 14.27482 1205 ft 18 kts 135°
2026-05-07 19:04 50.09653 14.27621 1208 ft 17 kts 135°
2026-05-07 19:04 50.09570 14.27748 1211 ft 17 kts 135°
2026-05-07 19:04 50.09483 14.27881 1215 ft 17 kts 135°
2026-05-07 19:04 50.09398 14.28011 1215 ft 18 kts 135°
2026-05-07 19:05 50.09306 14.28152 1215 ft 19 kts 135°
2026-05-07 19:05 50.09251 14.28235 1213 ft 9 kts 136°
2026-05-07 19:05 50.09242 14.28248 1212 ft 0 kts 138°
2026-05-07 19:06 50.09222 14.28270 1212 ft 6 kts 148°
2026-05-07 19:06 50.09148 14.28265 1211 ft 0 kts 216°
2026-05-07 19:07 50.09147 14.28265 1211 ft 0 kts 216°
2026-05-07 19:08 50.09123 14.28237 1211 ft 9 kts 216°
2026-05-07 19:08 50.09070 14.28164 1209 ft 9 kts 233°
2026-05-07 19:08 50.09078 14.28098 1208 ft 3 kts 307°
2026-05-07 19:08 50.09079 14.28097 1208 ft 0 kts 307°
2026-05-07 19:09 50.09124 14.28004 1210 ft 38 kts 307°
2026-05-07 19:09 50.09418 14.27395 1210 ft 100 kts 307°
2026-05-07 19:10 50.09941 14.26313 1211 ft 147 kts 307°
2026-05-07 19:10 50.10557 14.25043 1708 ft 147 kts 309°
2026-05-07 19:10 50.11169 14.23793 2303 ft 147 kts 310°
2026-05-07 19:10 50.11811 14.22472 2650 ft 162 kts 309°
2026-05-07 19:11 50.12570 14.20907 2736 ft 198 kts 309°
2026-05-07 19:11 50.13455 14.19074 3095 ft 224 kts 308°
2026-05-07 19:11 50.14439 14.17029 3575 ft 247 kts 308°
2026-05-07 19:11 50.15486 14.14848 4410 ft 254 kts 307°
2026-05-07 19:12 50.16553 14.12625 5348 ft 258 kts 306°
2026-05-07 19:12 50.17639 14.10361 6254 ft 262 kts 306°
2026-05-07 19:12 50.18986 14.08416 7104 ft 269 kts 328°
2026-05-07 19:12 50.20783 14.07517 7930 ft 278 kts 354°
2026-05-07 19:13 50.22735 14.07709 8749 ft 284 kts
2026-05-07 19:13 50.24713 14.08054 9590 ft 288 kts
2026-05-07 19:13 50.26719 14.08413 10303 ft 295 kts
2026-05-07 19:13 50.28843 14.08790 10544 ft 319 kts
2026-05-07 19:14 50.31123 14.09190 10822 ft 337 kts
2026-05-07 19:14 50.33482 14.09603 11421 ft 344 kts
2026-05-07 19:14 50.35877 14.10020 12093 ft 348 kts
2026-05-07 19:14 50.38296 14.10438 12798 ft 352 kts
2026-05-07 19:15 50.40743 14.10857 13495 ft 355 kts
2026-05-07 19:15 50.43214 14.11281 14147 ft 359 kts
2026-05-07 19:15 50.45708 14.11709 14772 ft 362 kts
2026-05-07 19:15 50.48220 14.12140 15391 ft 365 kts
2026-05-07 19:16 50.50757 14.12578 15885 ft 369 kts
2026-05-07 19:16 50.53323 14.13021 16366 ft 372 kts
2026-05-07 19:16 50.55897 14.13468 17010 ft 374 kts
2026-05-07 19:16 50.58489 14.13998 17639 ft 377 kts
2026-05-07 19:17 50.61090 14.14616 18270 ft 380 kts
2026-05-07 19:17 50.63710 14.15278 18839 ft 383 kts
2026-05-07 19:17 50.66350 14.15953 19420 ft 385 kts
2026-05-07 19:17 50.69005 14.16626 20018 ft 388 kts
2026-05-07 19:18 50.71678 14.17290 20609 ft 390 kts
2026-05-07 19:18 50.74373 14.17947 21166 ft 393 kts
2026-05-07 19:18 50.77085 14.18595 21724 ft 396 kts
2026-05-07 19:18 50.79821 14.19244 22271 ft 398 kts
2026-05-07 19:19 50.82529 14.19889 22823 ft 400 kts
2026-05-07 19:19 50.85282 14.20549 23394 ft 401 kts
2026-05-07 19:19 50.88047 14.21192 23880 ft 402 kts
2026-05-07 19:19 50.90843 14.21328 24332 ft 403 kts 356°
2026-05-07 19:20 50.93636 14.20818 24729 ft 405 kts 352°
2026-05-07 19:20 50.96447 14.20196 25083 ft 409 kts 352°
2026-05-07 19:20 50.99273 14.19566 25465 ft 412 kts 352°
2026-05-07 19:20 51.02113 14.18934 25861 ft 414 kts 352°
2026-05-07 19:21 51.04977 14.18297 26234 ft 417 kts 352°
2026-05-07 19:21 51.07855 14.17663 26603 ft 419 kts 352°
2026-05-07 19:21 51.10753 14.17062 26990 ft 421 kts 352°
2026-05-07 19:21 51.13668 14.16484 27355 ft 423 kts 353°
2026-05-07 19:22 51.16601 14.15921 27711 ft 426 kts 353°
2026-05-07 19:22 51.19556 14.15359 28082 ft 428 kts 353°
2026-05-07 19:22 51.22518 14.14789 28465 ft 430 kts 353°
2026-05-07 19:22 51.25498 14.14208 28803 ft 433 kts 353°
2026-05-07 19:23 51.28498 14.13613 29149 ft 435 kts 352°
2026-05-07 19:23 51.31512 14.13007 29499 ft 437 kts 352°
2026-05-07 19:23 51.34536 14.12393 29842 ft 439 kts 352°
2026-05-07 19:23 51.37578 14.11779 30149 ft 442 kts 352°
2026-05-07 19:24 51.40622 14.11114 30537 ft 441 kts 351°
2026-05-07 19:24 51.43657 14.10323 30896 ft 442 kts 349°
2026-05-07 19:24 51.46684 14.09440 31193 ft 443 kts 349°
2026-05-07 19:24 51.49716 14.08512 31509 ft 445 kts 348°
2026-05-07 19:25 51.52760 14.07575 31853 ft 446 kts 348°
2026-05-07 19:25 51.55812 14.06654 32209 ft 447 kts 348°
2026-05-07 19:25 51.58877 14.05756 32570 ft 447 kts 349°
2026-05-07 19:25 51.61899 14.04890 32925 ft 448 kts 349°
2026-05-07 19:26 51.64975 14.04015 33287 ft 449 kts 349°
2026-05-07 19:26 51.68055 14.03141 33651 ft 450 kts 349°
2026-05-07 19:26 51.71135 14.02266 34004 ft 451 kts 349°
2026-05-07 19:26 51.74188 14.01132 34311 ft 450 kts 342°
2026-05-07 19:27 51.77195 13.99701 34597 ft 451 kts 342°
2026-05-07 19:27 51.80197 13.98239 34902 ft 451 kts 341°
2026-05-07 19:27 51.83198 13.96753 35202 ft 451 kts 341°
2026-05-07 19:27 51.86197 13.95258 35494 ft 451 kts 341°
2026-05-07 19:28 51.89194 13.93766 35766 ft 451 kts 341°
2026-05-07 19:28 51.92197 13.92269 36053 ft 451 kts 341°
2026-05-07 19:28 51.95200 13.90775 36339 ft 451 kts 341°
2026-05-07 19:28 51.98201 13.89285 36609 ft 452 kts 341°
2026-05-07 19:29 52.01207 13.87796 36861 ft 452 kts 341°
2026-05-07 19:29 52.04215 13.86309 37110 ft 452 kts 341°
2026-05-07 19:29 52.07222 13.84820 37386 ft 452 kts 341°
2026-05-07 19:29 52.10229 13.83330 37681 ft 451 kts 341°
2026-05-07 19:30 52.13225 13.81843 37935 ft 451 kts 341°
2026-05-07 19:30 52.16232 13.80343 38082 ft 452 kts 341°
2026-05-07 19:30 52.22284 13.77305 38108 ft 457 kts 341°
2026-05-07 19:31 52.28360 13.74249 38111 ft 457 kts 341°
2026-05-07 19:31 52.34447 13.71186 38111 ft 457 kts 341°
2026-05-07 19:32 52.40523 13.68115 38107 ft 457 kts 341°
2026-05-07 19:32 52.46606 13.65043 38118 ft 458 kts 341°
2026-05-07 19:33 52.52691 13.61963 38125 ft 458 kts 341°
2026-05-07 19:33 52.58782 13.58867 38138 ft 458 kts 341°
2026-05-07 19:34 52.64864 13.55749 38135 ft 458 kts 341°
2026-05-07 19:34 52.70940 13.52636 38136 ft 457 kts 341°
2026-05-07 19:35 52.77016 13.49519 38136 ft 457 kts 341°
2026-05-07 19:35 52.82061 13.46924 38139 ft 457 kts 341°
2026-05-07 19:36 52.89112 13.43270 38141 ft 457 kts 341°
2026-05-07 19:36 52.94199 13.40637 38139 ft 457 kts 341°
2026-05-07 19:37 53.00270 13.37489 38143 ft 457 kts 341°
2026-05-07 19:37 53.06338 13.34338 38141 ft 457 kts 341°
2026-05-07 19:38 53.12407 13.31161 38153 ft 457 kts 341°
2026-05-07 19:38 53.18464 13.27980 38147 ft 456 kts 341°
2026-05-07 19:39 53.24518 13.24802 38152 ft 456 kts 341°
2026-05-07 19:39 53.30562 13.21615 38151 ft 456 kts 341°
2026-05-07 19:40 53.36608 13.18421 38148 ft 455 kts 341°
2026-05-07 19:40 53.42608 13.15242 37802 ft 455 kts 341°
2026-05-07 19:41 53.45622 13.13633 37535 ft 454 kts 341°
2026-05-07 19:41 53.48628 13.12029 37271 ft 453 kts 341°
2026-05-07 19:41 53.51634 13.10427 37011 ft 453 kts 341°
2026-05-07 19:41 53.54638 13.08829 36761 ft 453 kts 341°
2026-05-07 19:42 53.57641 13.07228 36504 ft 452 kts 341°
2026-05-07 19:42 53.60636 13.05622 36256 ft 452 kts 341°
2026-05-07 19:42 53.63629 13.04013 36007 ft 451 kts 341°
2026-05-07 19:42 53.66625 13.02404 35559 ft 451 kts 341°
2026-05-07 19:43 53.69609 13.00802 35076 ft 450 kts 341°
2026-05-07 19:43 53.72590 12.99197 34600 ft 449 kts 342°
2026-05-07 19:43 53.75567 12.97588 34134 ft 448 kts 342°
2026-05-07 19:43 53.78532 12.95985 33580 ft 448 kts 342°
2026-05-07 19:44 53.81503 12.94380 33032 ft 448 kts 342°
2026-05-07 19:44 53.84471 12.92773 32493 ft 449 kts 342°
2026-05-07 19:44 53.87443 12.91163 31956 ft 447 kts 341°
2026-05-07 19:44 53.90392 12.89564 31437 ft 444 kts 341°
2026-05-07 19:45 53.93326 12.87970 30928 ft 441 kts 341°
2026-05-07 19:45 53.96233 12.86386 30436 ft 437 kts 341°
2026-05-07 19:45 53.99112 12.84815 29894 ft 433 kts 341°
2026-05-07 19:45 54.01972 12.83248 29313 ft 430 kts 341°
2026-05-07 19:46 54.04802 12.81697 28747 ft 425 kts 341°
2026-05-07 19:46 54.07608 12.80160 28200 ft 421 kts 341°
2026-05-07 19:46 54.10383 12.78636 27659 ft 417 kts 341°
2026-05-07 19:46 54.13132 12.77118 27133 ft 413 kts 341°
2026-05-07 19:47 54.15850 12.75615 26616 ft 409 kts 341°
2026-05-07 19:47 54.18547 12.74124 26109 ft 406 kts 341°
2026-05-07 19:47 54.21226 12.72644 25632 ft 403 kts 341°
2026-05-07 19:47 54.23882 12.71179 25180 ft 400 kts 341°
2026-05-07 19:48 54.26515 12.69725 24749 ft 397 kts 341°
2026-05-07 19:48 54.29138 12.68274 24320 ft 394 kts 341°
2026-05-07 19:48 54.31741 12.66833 23894 ft 392 kts 341°
2026-05-07 19:48 54.34330 12.65398 23431 ft 390 kts 341°
2026-05-07 19:49 54.36904 12.63966 22927 ft 388 kts 341°
2026-05-07 19:49 54.39461 12.62536 22420 ft 386 kts 341°
2026-05-07 19:49 54.42006 12.61113 21958 ft 383 kts 341°
2026-05-07 19:49 54.44535 12.59702 21485 ft 381 kts 341°
2026-05-07 19:50 54.47047 12.58299 21016 ft 378 kts 341°
2026-05-07 19:50 54.49502 12.56921 20563 ft 375 kts 341°
2026-05-07 19:50 54.51995 12.55696 20106 ft 372 kts 350°
2026-05-07 19:50 54.54560 12.55141 19662 ft 370 kts 353°
2026-05-07 19:51 54.57103 12.54618 19214 ft 367 kts 353°
2026-05-07 19:51 54.59632 12.54092 18790 ft 365 kts 353°
2026-05-07 19:51 54.62145 12.53565 18361 ft 363 kts 353°
2026-05-07 19:51 54.64640 12.53041 17868 ft 360 kts 353°
2026-05-07 19:52 54.67123 12.52516 17380 ft 358 kts 353°
2026-05-07 19:52 54.69583 12.51997 16906 ft 355 kts 353°
2026-05-07 19:52 54.72032 12.51482 16425 ft 352 kts 352°
2026-05-07 19:52 54.74456 12.50974 15934 ft 350 kts 353°
2026-05-07 19:53 54.76866 12.50472 15444 ft 348 kts 353°
2026-05-07 19:53 54.79260 12.49969 14969 ft 346 kts 353°
2026-05-07 19:53 54.81641 12.49465 14482 ft 344 kts 353°
2026-05-07 19:53 54.84009 12.48965 13999 ft 342 kts 353°
2026-05-07 19:54 54.86369 12.48474 13482 ft 340 kts 353°
2026-05-07 19:54 54.88709 12.47987 13004 ft 337 kts 353°
2026-05-07 19:54 54.91029 12.47499 12541 ft 334 kts 353°
2026-05-07 19:54 54.93326 12.47010 12043 ft 331 kts 354°
2026-05-07 19:55 54.95608 12.46527 11587 ft 329 kts 354°
2026-05-07 19:55 54.97875 12.46049 11126 ft 327 kts 354°
2026-05-07 19:55 55.00127 12.45570 10664 ft 325 kts 354°
2026-05-07 19:55 55.02346 12.45095 10459 ft 316 kts 354°
2026-05-07 19:56 55.04486 12.44636 10336 ft 304 kts 354°
2026-05-07 19:56 55.06551 12.44195 10191 ft 294 kts 354°
2026-05-07 19:56 55.08562 12.43764 10010 ft 287 kts 354°
2026-05-07 19:56 55.10556 12.43336 9589 ft 290 kts 354°
2026-05-07 19:57 55.12557 12.42910 9259 ft 287 kts 354°
2026-05-07 19:57 55.14520 12.42493 9149 ft 283 kts 354°
2026-05-07 19:57 55.16477 12.42077 9158 ft 283 kts 354°
2026-05-07 19:57 55.18433 12.41660 9156 ft 284 kts 354°
2026-05-07 19:58 55.20392 12.41239 9094 ft 285 kts 354°
2026-05-07 19:58 55.22362 12.40815 8710 ft 285 kts 354°
2026-05-07 19:58 55.24335 12.40392 8184 ft 283 kts 354°
2026-05-07 19:58 55.26266 12.39979 7670 ft 276 kts 354°
2026-05-07 19:59 55.28153 12.39573 7165 ft 270 kts 354°
2026-05-07 19:59 55.30002 12.39174 6662 ft 265 kts 354°
2026-05-07 19:59 55.31814 12.38781 6191 ft 259 kts 354°
2026-05-07 19:59 55.33581 12.38396 5769 ft 254 kts 353°
2026-05-07 20:00 55.35340 12.38014 5381 ft 256 kts 354°
2026-05-07 20:00 55.37116 12.37631 5007 ft 257 kts 353°
2026-05-07 20:00 55.38884 12.37250 4707 ft 254 kts 353°
2026-05-07 20:00 55.40600 12.36879 4375 ft 242 kts 353°
2026-05-07 20:01 55.42235 12.36586 4062 ft 230 kts
2026-05-07 20:01 55.43760 12.37112 3757 ft 223 kts 22°
2026-05-07 20:01 55.45038 12.38563 3466 ft 223 kts 40°
2026-05-07 20:01 55.46213 12.40365 3203 ft 220 kts 40°
2026-05-07 20:02 55.47353 12.42113 2940 ft 213 kts 40°
2026-05-07 20:02 55.48419 12.43747 2673 ft 199 kts 40°
2026-05-07 20:02 55.49434 12.45302 2460 ft 186 kts 40°
2026-05-07 20:02 55.50377 12.46748 2200 ft 175 kts 40°
2026-05-07 20:03 55.51278 12.48131 2035 ft 165 kts 40°
2026-05-07 20:03 55.52135 12.49446 1889 ft 162 kts 40°
2026-05-07 20:03 55.52980 12.50744 1692 ft 161 kts 40°
2026-05-07 20:03 55.53783 12.51978 1495 ft 147 kts 39°
2026-05-07 20:04 55.54533 12.53132 1300 ft 140 kts 40°
2026-05-07 20:04 55.55261 12.54252 1119 ft 138 kts 39°
2026-05-07 20:04 55.55982 12.55362 920 ft 137 kts 39°
2026-05-07 20:04 55.56699 12.56472 693 ft 137 kts 40°
2026-05-07 20:05 55.57422 12.57551 516 ft 135 kts 39°
2026-05-07 20:05 55.58126 12.58654 354 ft 134 kts 40°
2026-05-07 20:05 55.58826 12.59733 174 ft 132 kts 40°
2026-05-07 20:05 55.59517 12.60802 29 ft 128 kts 39°
2026-05-07 20:06 55.60075 12.61666 25 ft 82 kts 41°
2026-05-07 20:06 55.60354 12.62101 23 ft 36 kts 41°
2026-05-07 20:06 55.60537 12.62300 26 ft 30 kts 20°
2026-05-07 20:06 55.60693 12.62366 25 ft 21 kts 11°
2026-05-07 20:07 55.60824 12.62450 25 ft 19 kts 36°
2026-05-07 20:07 55.60931 12.62614 24 ft 21 kts 38°
2026-05-07 20:07 55.61043 12.62789 24 ft 22 kts 40°
2026-05-07 20:07 55.61158 12.62964 24 ft 23 kts 41°
2026-05-07 20:08 55.61284 12.63160 25 ft 25 kts 41°
2026-05-07 20:08 55.61424 12.63376 26 ft 28 kts 41°
2026-05-07 20:08 55.61554 12.63578 25 ft 23 kts 41°
2026-05-07 20:08 55.61672 12.63760 26 ft 24 kts 41°
2026-05-07 20:09 55.61790 12.63945 24 ft 20 kts 41°
2026-05-07 20:09 55.61887 12.64084 26 ft 15 kts 29°
2026-05-07 20:09 55.61993 12.64173 24 ft 18 kts 26°
2026-05-07 20:10 55.62207 12.64351 21 ft 14 kts 25°
2026-05-07 20:10 55.62263 12.64452 23 ft 12 kts 65°
2026-05-07 20:10 55.62300 12.64597 24 ft 14 kts 66°
2026-05-07 20:10 55.62370 12.64674 24 ft 13 kts
2026-05-07 20:11 55.62461 12.64669 24 ft 11 kts 352°
2026-05-07 20:11 55.62548 12.64652 24 ft 14 kts 358°
2026-05-07 20:11 55.62618 12.64657 24 ft 7 kts
2026-05-07 20:11 55.62641 12.64644 25 ft 3 kts 303°
2026-05-07 20:12 55.62644 12.64600 24 ft 4 kts 279°
2026-05-07 20:12 55.62647 12.64566 24 ft 2 kts 281°
2026-05-07 20:12 55.62648 12.64555 24 ft 0 kts 281°